Regional Weather Roundup
Issued by NWS Boston, MA

Current Version | Previous Version | Text Only | Print | Product List | Glossary Off
Versions: 1 2 3 4 5 6 7 8 9 10 11 12 13 14 15 16 17 18 19 20 21 22 23 24 25 26 27 28 29 30 31 32 33 34 35 36 37 38 39 40 41 42 43 44 45 46 47 48 49 50
264 ASUS41 KBOX 181800 RWRBOX REGIONAL WEATHER ROUNDUP NATIONAL WEATHER SERVICE BOSTON/NORTON MA 100 PM EST FRI JAN 18 2019 NOTE: "FAIR" INDICATES FEW OR NO CLOUDS BELOW 12,000 FEET WITH NO SIGNIFICANT WEATHER AND/OR OBSTRUCTIONS TO VISIBILITY. MAZALL-181900- EASTERN MASSACHUSETTS CITY SKY/WX TMP DP RH WIND PRES REMARKS BOSTON FAIR 39 29 67 SE6 30.04F 6HR MIN TEMP: 29; 6HR MAX TEMP: 40; BEVERLY CLOUDY 38 27 64 SE10 30.04F WCI 31 LAWRENCE CLOUDY 36 25 64 S8 30.05F WCI 30 BEDFORD NOT AVBL BLUE HILL N/A 37 27 67 S6 30.01F NORWOOD CLOUDY 42 28 57 SE7 30.04F MARSHFIELD NOT AVBL PLYMOUTH CLOUDY 37 31 78 E3 30.05F TAUNTON CLOUDY 40 30 67 S7 30.05F NEW BEDFORD CLOUDY 38 33 82 S6 30.05F $$ MAZALL-181900- CAPE COD AND THE ISLANDS CITY SKY/WX TMP DP RH WIND PRES REMARKS FALMOUTH CLOUDY 37 32 81 SE5 30.05F HYANNIS NOT AVBL CHATHAM CLOUDY 37 34 89 E7 30.06F WCI 32 PROVINCETOWN CLOUDY 39 32 76 SE8 30.05F NANTUCKET CLOUDY 38 37 97 E10 30.03F WCI 31 MARTHAS VNYRD CLOUDY 36 36 100 E7 30.04F WCI 30 $$ MAZALL-181900- CENTRAL AND WESTERN MASSACHUSETTS CITY SKY/WX TMP DP RH WIND PRES REMARKS WORCESTER CLOUDY 32 26 78 S10 29.99F WCI 24 6HR MIN TEMP: 19; 6HR MAX TEMP: 32; FITCHBURG CLOUDY 33 23 66 S9 30.03F WCI 25 ORANGE CLOUDY 33 23 66 S6 30.02F WCI 28 SPRINGFIELD FLURRIES 32 19 59 W5 30.03F WCI 27 WESTFIELD CLOUDY 32 20 61 S6 30.03F WCI 26 NORTH ADAMS FLURRIES 31 24 75 VRB5 29.99F WCI 26 PITTSFIELD CLOUDY 30 24 78 S5 29.96F WCI 25 $$ RIZALL-181900- RHODE ISLAND CITY SKY/WX TMP DP RH WIND PRES REMARKS PROVIDENCE PTSUNNY 37 30 75 S7 30.05F WCI 32 6HR MIN TEMP: 26; 6HR MAX TEMP: 38; 6HR PCP: TRACE; NEWPORT CLOUDY 37 32 82 VRB3 30.05F BLOCK ISLAND CLOUDY 39 34 82 E6 30.05F SMITHFIELD CLOUDY 36 27 69 VRB3 30.03F WESTERLY CLOUDY 43 35 73 SE7 30.05F $$ CTZALL-181900- CONNECTICUT CITY SKY/WX TMP DP RH WIND PRES REMARKS BRADLEY INTL PTSUNNY 34 23 64 SW6 30.04F WCI 29 6HR MIN TEMP: 24; 6HR MAX TEMP: 34; HARTFORD CLOUDY 36 26 67 S3 30.06F BRIDGEPORT NOT AVBL DANBURY CLOUDY 36 28 73 SW8 30.05F WCI 30 GROTON NOT AVBL NEW HAVEN PTSUNNY 37 30 75 W5 30.06F CHESTER CLOUDY 37 32 81 S5 30.03F MERIDEN CLOUDY 36 29 75 S5 30.05F WILLIMANTIC CLOUDY 36 30 79 S7 30.05F WCI 30 OXFORD CLOUDY 37 30 75 S5 30.03F $$ MEZ002-015-021-024-NHZ003-005-008-011-012-014-VTZ005-008-181900- NORTHERN NEW ENGLAND CITY SKY/WX TMP DP RH WIND PRES REMARKS PORTLAND ME CLOUDY 29 14 53 VRB3 30.06F 6HR MIN TEMP: 16; 6HR MAX TEMP: 29; BANGOR ME LGT SNOW 28 26 92 S6 30.05F VSB 1 WCI 22 CONCORD NH CLOUDY 26 15 63 CALM 30.03F MANCHESTER NH CLOUDY 31 17 56 VRB5 30.03F WCI 26 NASHUA NH CLOUDY 33 21 61 CALM 30.04F PORTSMOUTH NH CLOUDY 32 16 51 CALM 30.03F JAFFREY NH CLOUDY 32 25 75 S5 29.98F WCI 27 KEENE NH CLOUDY 30 21 69 W3 30.01F BURLINGTON VT CLOUDY 29 22 75 S16 29.94F WCI 17 MT. WASHINGTON NOT AVBL $$ NYZ052-076-181900- EASTERN NEW YORK CITY SKY/WX TMP DP RH WIND PRES REMARKS ALBANY LGT SNOW 31 24 75 S8 30.01F WCI 23 6HR MIN TEMP: 25; 6HR MAX TEMP: 31; 6HR PCP: TRACE; NEW YORK CITY CLOUDY 36 32 85 NE6 30.06F WCI 31 6HR MIN TEMP: 32; 6HR MAX TEMP: 36; 6HR PCP: TRACE; $$ ANZALL-181900- MARINE OBSERVATIONS STATION/POSITION TIME TEMP WIND PRES VSBY WAVE AIR SEA DIR/SP/G HT/PER (UTC) (F) (DEG/KT/KT) (MB) (MI) (FT/S) BOSTON BUOY 1650 36 42 130/ 10/ 12 1018.9 2/ 3 BUZZARDS BAY 1700 35 70/ 9/ 10 1019.1F NANTUCKET SOUND 1740 35 36 80/ 8/ 10 1017.7F MASS BAY-STELLWA 1704 36 42 170/ 12/ 14 1017.6F 1 7/8 2/ 4 ISLE OF SHOALS 1700 35 190/ 10/ 14 1018.1F S OF BLOCK IS 1730 45 N/A 4/ 6 $$ ......................KEY......................... SKY/WX - SKY CONDITION/PRESENT WEATHER TMP - TEMPERATURE IN FAHRENHEIT DWPT - DEWPOINT IN FAHRENHEIT RH - RELATIVE HUMIDITY IN PERCENT WIND - DIRECTION AND SPEED IN MPH PRES - MEAN SEA LEVEL PRESSURE IN INCHES OF HG WCI - WIND CHILL INDEX VSB - VISIBILITY IN MILES HX - HEAT INDEX TC - TEMPERATURE IN CELSIUS VRB - VARIABLE WIND DIRECTION N/A - NOT AVAILABLE

USA.gov is the U.S. government's official web portal to all federal, state and local government web resources and services.